Regional Weather Roundup
Issued by NWS

Home | Current Version | Previous Version | Text Only | Print | Product List | Glossary On
Versions: 1 2 3 4 5 6 7 8 9 10 11 12 13 14 15 16 17 18 19 20 21 22 23 24 25 26 27 28 29 30 31 32 33 34 35 36 37 38 39 40 41 42 43 44 45 46 47 48 49 50
000
ASUS43 KLMK 232202
RWRKY
KENTUCKY REGIONAL WEATHER ROUNDUP
NATIONAL WEATHER SERVICE LOUISVILLE KY
500 PM EST FRI FEB 23 2018

NOTE "FAIR" INDICATES FEW OR NO CLOUDS BELOW 12,000 FEET
WITH NO SIGNIFICANT WEATHER AND/OR OBSTRUCTIONS TO VISIBILITY.

KYZ001>023-026-027-061>063-070>075-232300-
WESTERN AND SOUTH CENTRAL KENTUCKY

CITY           SKY/WX    TMP DP  RH WIND       PRES   REMARKS
PADUCAH        CLOUDY    56  53  90 N5        30.24S
HENDERSON      CLOUDY    53  49  86 SE6       30.23S
OWENSBORO      CLOUDY    56  52  86 NW10      30.24S
HOPKINSVILLE   PTSUNNY   65  63  95 N5        30.20S
BOWLING GREEN  PTSUNNY   76  63  64 SW7       30.20F
GLASGOW        NOT AVBL
$$

KYZ024-025-028>034-038-045-046-053-232300-
NORTH CENTRAL KENTUCKY

CITY           SKY/WX    TMP DP  RH WIND       PRES   REMARKS
LOUISVILLE/SDF CLOUDY    64  59  83 W9        30.22S
LOUISVILLE/LOU CLOUDY    64  61  90 NW7       30.23R
FORT KNOX      CLOUDY    61  60  96 NW3       30.23R
$$

KYZ035>037-039>044-047>052-055>060-089>105-232300-
NORTHEAST KENTUCKY

CITY           SKY/WX    TMP DP  RH WIND       PRES   REMARKS
LEXINGTON      PTSUNNY   71  60  68 W6        30.21F
COVINGTON      LGT RAIN  61  58  90 W16       30.21S
FRANKFORT      PTSUNNY   69  59  70 W3        30.21S
$$

KYZ054-064>069-076>088-106>120-232300-
SOUTHEAST KENTUCKY

CITY           SKY/WX    TMP DP  RH WIND       PRES   REMARKS
JACKSON        FAIR      78  54  43 MISG      30.23F
LONDON         FAIR      75  53  46 SW7       30.23F
SOMERSET       NOT AVBL
MIDDLESBORO    CLOUDY    76  56  51 S7        30.25F
MONTICELLO     NOT AVBL
$$




USA.gov is the U.S. government's official web portal to all federal, state and local government web resources and services.